This demonstration page uses our WeatherBlox Daily Observations layout. Learn more.

Left ArrowRight Arrow

41.86663, -103.66717

Hourly Observations for October 12, 2015

Temp ( °F °C ) Dew Point ( °F °C ) Humidity (%) Winds ( mph kmh ) Pressure ( in mb ) Visibility ( mi km ) Precip ( " mm )
12:53 am 00:53 Clear 46 7.8 28 -2.2 50 50 WNW 8 13 29.98 1015 10 16 0.00 0.00
1:53 am 01:53 Clear 48 8.9 25 -3.9 41 41 WNW 12 19 29.99 1016 10 16 0.00 0.00
2:53 am 02:53 Clear 40 4.4 29 -1.7 65 65 NW 7 11 30.04 1017 10 16 0.00 0.00
3:53 am 03:53 Clear 40 4.4 28 -2.2 63 63 NNW 8 13 30.05 1018 10 16 0.00 0.00
4:53 am 04:53 Clear 38 3.3 28 -2.2 68 68 NNW 8 13 30.06 1018 10 16 0.00 0.00
5:53 am 05:53 Clear 39 3.9 27 -2.8 62 62 undefined N/A 30.09 1019 10 16 0.00 0.00
6:53 am 06:53 Clear 37 2.8 26 -3.3 65 65 NNW 6 9 30.12 1020 10 16 0.00 0.00
7:53 am 07:53 Sunny 40 4.4 27 -2.8 60 60 SW 6 9 30.15 1021 10 16 0.00 0.00
8:53 am 08:53 Sunny 49 9.4 24 -4.4 38 38 WNW 9 15 30.15 1021 10 16 0.00 0.00
9:53 am 09:53 Sunny 54 12.2 24 -4.4 31 31 WNW 12 19 30.14 1021 10 16 0.00 0.00
10:53 am 10:53 Sunny 59 15 24 -4.4 26 26 NW 10 17 30.13 1020 10 16 0.00 0.00
11:53 am 11:53 Sunny 62 16.7 25 -3.9 24 24 WSW 6 9 30.09 1019 10 16 0.00 0.00
12:53 pm 12:53 Sunny 65 18.3 24 -4.4 21 21 VRB 3 6 30.06 1018 10 16 0.00 0.00
1:53 pm 13:53 Sunny 68 20 25 -3.9 20 20 WNW 9 15 30.02 1017 10 16 0.00 0.00
2:53 pm 14:53 Sunny 71 21.7 23 -5 16 16 WNW 9 15 30.01 1016 10 16 0.00 0.00
3:53 pm 15:53 Sunny 72 22.2 24 -4.4 17 17 Calm 30.00 1016 10 16 0.00 0.00
4:53 pm 16:53 Sunny 72 22.2 23 -5 16 16 Calm 29.99 1016 10 16 0.00 0.00
5:53 pm 17:53 Sunny 67 19.4 29 -1.7 24 24 S 3 6 30.00 1016 10 16 0.00 0.00
6:53 pm 18:53 Clear 59 15 32 0 36 36 undefined N/A 30.03 1017 10 16 0.00 0.00
7:53 pm 19:53 Clear 56 13.3 31 -0.6 39 39 Calm 30.05 1018 10 16 0.00 0.00
8:53 pm 20:53 Clear 47 8.3 35 1.7 63 63 E 6 9 30.05 1018 10 16 0.00 0.00
9:53 pm 21:53 Clear 47 8.3 34 1.1 61 61 ENE 5 7 30.03 1017 10 16 0.00 0.00
10:53 pm 22:53 Clear 46 7.8 33 0.6 61 61 NE 5 7 30.02 1017 10 16 0.00 0.00
11:53 pm 23:53 Clear 44 6.7 34 1.1 68 68 N 3 6 30.01 1016 10 16 0.00 0.00

Powered by AerisWeather